{"data":{"norad_id":68061,"epoch":"2026-05-25T03:39:28.545408Z","epoch_age_seconds":65838,"freshness":"FRESH","line1":"1 68061U 26041X   26145.15241372  .00045351  00000+0  13453-2 0  9992","line2":"2 68061  53.1583  52.6798 0000373  52.8867 307.2170 15.34400231 13124","mean_motion":15.34400231,"eccentricity":3.73e-5,"inclination_deg":53.1583,"raan_deg":52.6798,"arg_perigee_deg":52.8867,"mean_anomaly_deg":307.217,"bstar":0.0013453,"rev_number":1312,"period_min":93.847743952797,"perigee_km":462.44739031116,"apogee_km":462.95771694186,"semimajor_km":6840.8395536265,"source":"CELESTRAK","updated_at":"2026-05-25T13:38:21.815089Z"}}